STARLINK-31751, 59574

Orbit data source: Space-Track

STARLINK-31751, 59574 is a payload satellite owned by SpaceX/Seattle (US) in LEO that was launched on Tue, 23 Apr 2024 UTC via an FALCON 9 launch vehicle from the Air Force Eastern Test Range (AFETR). Payload-class satellites include a variety of spacecraft equipped with specific instruments for various scientific and technological missions. These include communications satellites like Starlink; space stations such as the ISS; scientific satellites like the Hubble; Earth observation satellites from companies like Planet Labs, Umbra, and HawkEye 360; GPS; miniature CubeSats for education and research; and military/defense satellites.

Loading next visibility...
Identifier
59574, 2024-076L
Orbit
LEO
Country
Flag of USUS
Related business
Manufacturer
SpaceX/Seattle
Mission
Operational Commercial Communications
Bus & Motor
STARLINK V2M, Unknown motor
Mass
730 kg wet, ~700 kg dry
Launch date (UTC)
2024-04-23 (2 years ago)
Launch vehicle
FALCON 9
Launch site
Air Force Eastern Test Range (AFETR)
Object type
Payload
Rocket body
Debris
Shape & HBR
Box + 2 Pan, 17.7 m
Radar Cross Section
33.884 m², Large (>1 m²)

Expand to show TLE details & history
Last TLE update: 11 hours ago

TLE from 11 hours ago
0 STARLINK-31751
1 59574U 24076L   26037.72691258  .00002690  00000-0  10723-3 0  9990
2 59574  42.9991 184.1878 0001001 203.4426 156.6381 15.27583254101763
Epoch: 2026-02-06T17:26Z
TLE epoch observation values (Epoch: 2026-02-06T17:26:45.246Z)
Latitude
0.00002°
Longitude
145.63866°
Altitude
483.445 km
Speed
7.625 km/s
True Right ascension
12h 16m 45s
True Declination
0° 00' 00"
Sunlit
Object was in full shadow at epoch
Visualization orbit readout
Latitude
Unknown
Longitude
Unknown
Altitude
Unknown
Speed
Unknown
Apparent Right ascension
Unknown
Apparent Declination
Unknown
Sunlit
N/A
Visualization observer readout
Local Sidereal Time
06:16:55
Azimuth
Unknown
Elevation
Unknown
Doppler factor
Unknown
Orbital elements
Apogee altitude
485.672 km
Perigee altitude
484.298 km
Semi-major axis
6,863.122 km
Eccentricity
0.0001
Inclination
42.9991°
RAAN
184.1878°
Arg. of periapsis
203.4426°
True anomaly
156.64265°
Mean anomaly
156.6381°
Eccentric anomaly
156.64037°
Mean motion
3.81734 °/min
Orbital period
94.31 mins
BSTAR
0.00010723
Loading maneuver chart data...
Computing Atmospheric mass density...
Loading historical data...
Loading historical data...
Loading historical data...
Loading historical data...
Loading historical data...
Loading historical data...
Loading historical data...

Documentation

Showing up to 5 results
|